New Bedford, MA

6:21 AM EDT on September 26, 2017 (GMT -0400)
New Bedford Regional

Weather History for KEWB - November, 2012

Change the Weather History Date:

Tuesday, November 6, 2012

  Actual Average Record
Temperature  
Mean Temperature 34 °F -  
Max Temperature 43 °F 54 °F 69 °F (1959)
Min Temperature 25 °F 41 °F 24 °F (2011)
Degree Days  
Heating Degree Days 31    
Moisture  
Dew Point 19 °F    
Average Humidity 59    
Maximum Humidity 79    
Minimum Humidity 34    
Precipitation  
Precipitation 0.00 in - - ()
Sea Level Pressure  
Sea Level Pressure 30.18 in    
Wind  
Wind Speed 2 mph (NNE)    
Max Wind Speed 7 mph    
Max Gust Speed -    
Visibility 10 miles    
Events      
Averages and records for this station are not official NWS values.
T = Trace of Precipitation, MM = Missing Value Source: NWS Daily Summary

Daily Weather History Graph

Daily Weather History Graph

Search for Another Location

Airport or City:

Trip Planner

Search our weather history database for the weather conditions in past years. The results will help you decide how hot, cold, wet, or windy it might be!

Date:

Astronomy

Nov. 06, 2012 Rise Set
Actual Time 6:22 AM EST 4:31 PM EST
Civil Twilight 5:53 AM EST 5:01 PM EST
Nautical Twilight 5:20 AM EST 5:34 PM EST
Astronomical Twilight 4:47 AM EST 6:06 PM EST
Moon 11:08 PM EST (11/6) 12:12 PM EST (11/6)
Length of Visible Light 11h 07m
Length of Day
10h 09m
Waning Gibbous, 53% of the Moon is Illuminated
Nov 6
Waning Gibbous
Nov 6
Last Quarter
Nov 13
New
Nov 20
First Quarter
Nov 28
Full

Hourly Weather History & Observations

Time (EST) Temp. Windchill Dew Point Humidity Pressure Visibility Wind Dir Wind Speed Gust Speed Precip Events Conditions
12:53 AM 30.0 °F 26.5 °F 19.0 °F 64% 30.14 in 10.0 mi NW 3.5 mph - N/A   Clear
1:53 AM 28.9 °F - 18.0 °F 64% 30.15 in 10.0 mi Calm Calm - N/A   Clear
2:53 AM 28.0 °F - 18.0 °F 66% 30.16 in 10.0 mi Calm Calm - N/A   Clear
3:53 AM 27.0 °F - 19.0 °F 72% 30.16 in 10.0 mi Calm Calm - N/A   Clear
4:53 AM 27.0 °F - 18.0 °F 69% 30.16 in 10.0 mi Calm Calm - N/A   Clear
5:53 AM 25.0 °F - 18.0 °F 75% 30.18 in 10.0 mi Calm Calm - N/A   Clear
6:53 AM 26.1 °F - 19.0 °F 75% 30.20 in 10.0 mi Calm Calm - N/A   Clear
7:53 AM 30.9 °F - 19.9 °F 64% 30.23 in 10.0 mi Calm Calm - N/A   Clear
8:53 AM 35.1 °F 30.1 °F 18.0 °F 50% 30.23 in 10.0 mi North 5.8 mph - N/A   Clear
9:53 AM 37.9 °F 32.7 °F 16.0 °F 41% 30.23 in 10.0 mi North 6.9 mph - N/A   Clear
10:53 AM 39.9 °F 37.8 °F 16.0 °F 38% 30.22 in 10.0 mi Variable 3.5 mph - N/A   Clear
11:53 AM 41.0 °F 39.0 °F 16.0 °F 36% 30.21 in 10.0 mi Variable 3.5 mph - N/A   Clear
12:53 PM 42.1 °F 40.2 °F 16.0 °F 35% 30.19 in 10.0 mi Variable 3.5 mph - N/A   Clear
1:53 PM 42.1 °F 40.2 °F 15.1 °F 34% 30.18 in 10.0 mi Variable 3.5 mph - N/A   Clear
2:53 PM 43.0 °F - 16.0 °F 34% 30.17 in 10.0 mi Calm Calm - N/A   Clear
3:53 PM 41.0 °F 38.0 °F 16.0 °F 36% 30.17 in 10.0 mi NNE 4.6 mph - N/A   Clear
4:53 PM 36.0 °F 30.3 °F 21.0 °F 55% 30.19 in 10.0 mi ENE 6.9 mph - N/A   Clear
5:53 PM 32.0 °F 27.5 °F 21.9 °F 66% 30.19 in 10.0 mi NE 4.6 mph - N/A   Clear
6:53 PM 30.0 °F 26.5 °F 21.9 °F 72% 30.21 in 10.0 mi North 3.5 mph - N/A   Clear
7:53 PM 28.0 °F - 21.9 °F 78% 30.19 in 10.0 mi Calm Calm - N/A   Clear
8:53 PM 28.9 °F - 21.9 °F 75% 30.20 in 10.0 mi Calm Calm - N/A   Clear
9:53 PM 30.9 °F 26.2 °F 23.0 °F 72% 30.16 in 10.0 mi NNE 4.6 mph - N/A   Clear
10:53 PM 28.9 °F 25.2 °F 23.0 °F 78% 30.17 in 10.0 mi NNE 3.5 mph - N/A   Clear
11:53 PM 32.0 °F 26.4 °F 26.1 °F 79% 30.13 in 10.0 mi North 5.8 mph - N/A   Clear